Terminal Aerodrome Forecast
Issued by NWS

Home | Current Version | Previous Version | Graphics & Text | Print | Product List | Glossary Off
Versions: 1 2 3 4 5 6 7 8 9 10 11 12 13 14 15 16 17 18 19 20 21 22 23 24 25 26 27 28 29 30 31 32 33 34 35 36 37 38 39

000
FTUS43 KDDC 231120
TAFHYS
TAF
KHYS 231120Z 2312/2412 10006KT P6SM BKN050
     FM231500 16007KT P6SM BKN028
     FM231800 12010KT P6SM OVC015
     FM232100 14014KT P6SM -DZ OVC008
     FM240200 14014KT 2SM BR OVC004=

USA.gov is the U.S. government's official web portal to all federal, state and local government web resources and services.